,,Stat6,,Stat2,,Stat8,,Stat9,,Stat10,,Wind1,,Wind1,
time,status,PA1M_AVG,status,PR1M_SUM,status,RH1M_AVG,status,SR1M_AVG,status,TA1M_AVG,status,W1dAve1m,status,W1sAve1m,
2007-03-09, 00:00:00,VALID,917.18,VALID,0,VALID,98.1106,VALID,55.2556,VALID,18.19,VALID,144,VALID,1.28374,
2007-03-09, 00:01:00,VALID,917.187,VALID,0,VALID,98.0178,VALID,57.0047,VALID,18.1997,VALID,145,VALID,1.43641,
2007-03-09, 00:02:00,VALID,917.202,VALID,0,VALID,98.0051,VALID,58.6857,VALID,18.2201,VALID,147,VALID,1.13548,
2007-03-09, 00:03:00,VALID,917.217,VALID,0,VALID,98.1094,VALID,60.5027,VALID,18.2162,VALID,158,VALID,1.14941,
2007-03-09, 00:04:00,VALID,917.235,VALID,0,VALID,98.2505,VALID,62.3196,VALID,18.203,VALID,146,VALID,1.29634,
2007-03-09, 00:05:00,VALID,917.255,VALID,0,VALID,98.5163,VALID,64.1536,VALID,18.1671,VALID,150,VALID,1.24627,
2007-03-09, 00:06:00,VALID,917.263,VALID,0,VALID,98.7668,VALID,65.9196,VALID,18.1488,VALID,144,VALID,1.41708,
2007-03-09, 00:07:00,VALID,917.276,VALID,0,VALID,98.9168,VALID,67.2441,VALID,18.1094,VALID,148,VALID,1.37014,
2007-03-09, 00:08:00,VALID,917.285,VALID,0,VALID,99.0453,VALID,68.6705,VALID,18.0962,VALID,147,VALID,1.24727,
2007-03-09, 00:09:00,VALID,917.312,VALID,0,VALID,99.0033,VALID,70.5214,VALID,18.1024,VALID,146,VALID,1.63643,
2007-03-09, 00:10:00,VALID,917.316,VALID,0,VALID,99.1089,VALID,72.5761,VALID,18.1092,VALID,136,VALID,1.24944,
2007-03-09, 00:11:00,VALID,917.335,VALID,0,VALID,99.1979,VALID,74.2742,VALID,18.1059,VALID,138,VALID,1.14267,
2007-03-09, 00:12:00,VALID,917.357,VALID,0,VALID,99.1724,VALID,76.159,VALID,18.1147,VALID,134,VALID,1.45933,
2007-03-09, 00:13:00,VALID,917.384,VALID,0,VALID,99.0326,VALID,78.5194,VALID,18.1465,VALID,137,VALID,1.43129,
2007-03-09, 00:14:00,VALID,917.393,VALID,0,VALID,98.7337,VALID,81.5929,VALID,18.1914,VALID,142,VALID,1.59854,
2007-03-09, 00:15:00,VALID,917.419,VALID,0,VALID,98.4934,VALID,85.0909,VALID,18.2729,VALID,129,VALID,1.06417,
2007-03-09, 00:16:00,VALID,917.43,VALID,0,VALID,98.0509,VALID,88.7079,VALID,18.3415,VALID,151,VALID,1.38318,
2007-03-09, 00:17:00,VALID,917.449,VALID,0,VALID,97.5422,VALID,92.4267,VALID,18.3999,VALID,151,VALID,1.67383,
2007-03-09, 00:18:00,VALID,917.462,VALID,0,VALID,97.1658,VALID,95.4492,VALID,18.4515,VALID,158,VALID,1.4213,
2007-03-09, 00:19:00,VALID,917.484,VALID,0,VALID,97.012,VALID,98.302,VALID,18.5134,VALID,147,VALID,1.127,
2007-03-09, 00:20:00,VALID,917.513,VALID,0,VALID,96.8683,VALID,101.698,VALID,18.549,VALID,149,VALID,1.43306,
2007-03-09, 00:21:00,VALID,917.512,VALID,0,VALID,96.8861,VALID,104.908,VALID,18.5713,VALID,144,VALID,1.26105,
2007-03-09, 00:22:00,VALID,917.538,VALID,0,VALID,96.7971,VALID,107.998,VALID,18.5873,VALID,144,VALID,1.34066,
2007-03-09, 00:23:00,VALID,917.546,VALID,0,VALID,96.8162,VALID,111.87,VALID,18.6074,VALID,141,VALID,1.23892,
2007-03-09, 00:24:00,VALID,917.561,VALID,0,VALID,96.8619,VALID,115.47,VALID,18.6236,VALID,144,VALID,1.12173,
2007-03-09, 00:25:00,VALID,917.588,VALID,0,VALID,96.9039,VALID,119.171,VALID,18.6658,VALID,129,VALID,1.00527,
2007-03-09, 00:26:00,VALID,917.606,VALID,0,VALID,96.6686,VALID,123.383,VALID,18.6686,VALID,132,VALID,1.16597,
2007-03-09, 00:27:00,VALID,917.623,VALID,0,VALID,96.3889,VALID,126.168,VALID,18.689,VALID,129,VALID,1.26209,
2007-03-09, 00:28:00,VALID,917.631,VALID,0,VALID,96.3991,VALID,129.258,VALID,18.7186,VALID,124,VALID,1.11403,
2007-03-09, 00:29:00,VALID,917.643,VALID,0,VALID,96.4843,VALID,132.196,VALID,18.7768,VALID,96,VALID,0.914757,
2007-03-09, 00:30:00,VALID,917.654,VALID,0,VALID,96.5606,VALID,135.066,VALID,18.8454,VALID,99,VALID,0.986111,
2007-03-09, 00:31:00,VALID,917.673,VALID,0,VALID,96.4652,VALID,138.122,VALID,18.9042,VALID,127,VALID,0.839844,
2007-03-09, 00:32:00,VALID,917.681,VALID,0,VALID,95.926,VALID,140.16,VALID,18.916,VALID,136,VALID,1.03981,
2007-03-09, 00:33:00,VALID,917.704,VALID,0,VALID,95.4416,VALID,143.454,VALID,18.9424,VALID,136,VALID,1.18768,
2007-03-09, 00:34:00,VALID,917.725,VALID,0,VALID,95.2902,VALID,148.395,VALID,19.0013,VALID,143,VALID,1.06707,
2007-03-09, 00:35:00,VALID,917.751,VALID,0,VALID,95.0702,VALID,154.627,VALID,19.0365,VALID,144,VALID,0.947129,
2007-03-09, 00:36:00,VALID,917.766,VALID,0,VALID,94.9151,VALID,160.486,VALID,19.0914,VALID,146,VALID,1.10004,
2007-03-09, 00:37:00,VALID,917.788,VALID,0,VALID,94.3798,VALID,164.544,VALID,19.1114,VALID,142,VALID,1.3771,
2007-03-09, 00:38:00,VALID,917.796,VALID,0,VALID,94.1928,VALID,169.808,VALID,19.1308,VALID,142,VALID,1.34642,
2007-03-09, 00:39:00,VALID,917.803,VALID,0,VALID,94.5743,VALID,175.293,VALID,19.1765,VALID,142,VALID,1.04233,
2007-03-09, 00:40:00,VALID,917.815,VALID,0,VALID,94.4942,VALID,179.453,VALID,19.2191,VALID,150,VALID,1.05895,
2007-03-09, 00:41:00,VALID,917.818,VALID,0,VALID,94.4993,VALID,183.036,VALID,19.2511,VALID,152,VALID,1.0258,
2007-03-09, 00:42:00,VALID,917.82,VALID,0,VALID,93.9779,VALID,190.406,VALID,19.2666,VALID,145,VALID,1.12538,
2007-03-09, 00:43:00,VALID,917.835,VALID,0,VALID,94.2526,VALID,197.538,VALID,19.337,VALID,137,VALID,1.07386,
2007-03-09, 00:44:00,VALID,917.847,VALID,0,VALID,93.4286,VALID,203.855,VALID,19.3736,VALID,134,VALID,1.34334,
2007-03-09, 00:45:00,VALID,917.872,VALID,0,VALID,92.8437,VALID,210.223,VALID,19.3956,VALID,137,VALID,1.85361,
2007-03-09, 00:46:00,VALID,917.878,VALID,0,VALID,92.9441,VALID,214.196,VALID,19.4413,VALID,124,VALID,1.40495,
2007-03-09, 00:47:00,VALID,917.885,VALID,0,VALID,93.0547,VALID,218.781,VALID,19.5029,VALID,127,VALID,1.54102,
2007-03-09, 00:48:00,VALID,917.905,VALID,0,VALID,92.9912,VALID,225.913,VALID,19.5478,VALID,121,VALID,1.57961,
2007-03-09, 00:49:00,VALID,917.922,VALID,0,VALID,93.599,VALID,230.973,VALID,19.6227,VALID,120,VALID,1.15978,
2007-03-09, 00:50:00,VALID,917.949,VALID,0,VALID,93.5074,VALID,235.915,VALID,19.6846,VALID,135,VALID,1.34077,
2007-03-09, 00:51:00,VALID,917.953,VALID,0,VALID,93.2468,VALID,240.856,VALID,19.7432,VALID,130,VALID,1.73065,
2007-03-09, 00:52:00,VALID,917.97,VALID,0,VALID,93.9665,VALID,245.424,VALID,19.7916,VALID,123,VALID,1.10175,
2007-03-09, 00:53:00,VALID,917.975,VALID,0,VALID,94.2335,VALID,250.348,VALID,19.8892,VALID,126,VALID,1.07571,
2007-03-09, 00:54:00,VALID,917.983,VALID,0,VALID,93.8978,VALID,254.695,VALID,19.9474,VALID,129,VALID,0.718023,
2007-03-09, 00:55:00,VALID,917.985,VALID,0,VALID,93.5558,VALID,259.484,VALID,20.0287,VALID,148,VALID,0.510938,
2007-03-09, 00:56:00,VALID,917.984,VALID,0,VALID,93.4578,VALID,262.065,VALID,20.1296,VALID,134,VALID,0.723586,
2007-03-09, 00:57:00,VALID,918.011,VALID,0,VALID,93.702,VALID,265.648,VALID,20.2429,VALID,140,VALID,0.531432,
2007-03-09, 00:58:00,VALID,918.018,VALID,0,VALID,93.3765,VALID,271.676,VALID,20.353,VALID,156,VALID,0.597284,
2007-03-09, 00:59:00,VALID,918.034,VALID,0,VALID,91.4093,VALID,273.85,VALID,20.4314,VALID,152,VALID,1.30167,
2007-03-09, 01:00:00,VALID,918.043,VALID,0,VALID,90.7684,VALID,274.291,VALID,20.4246,VALID,130,VALID,1.12555,
2007-03-09, 01:01:00,VALID,918.058,VALID,0,VALID,90.8714,VALID,272.525,VALID,20.4895,VALID,143,VALID,1.23601,
2007-03-09, 01:02:00,VALID,918.071,VALID,0,VALID,90.6616,VALID,275.922,VALID,20.519,VALID,148,VALID,0.877539,
2007-03-09, 01:03:00,VALID,918.067,VALID,0,VALID,90.9019,VALID,281.152,VALID,20.6031,VALID,126,VALID,0.925249,
2007-03-09, 01:04:00,VALID,918.091,VALID,0,VALID,90.448,VALID,283.512,VALID,20.6356,VALID,146,VALID,1.22535,
2007-03-09, 01:05:00,VALID,918.095,VALID,0,VALID,91.1435,VALID,285.974,VALID,20.6942,VALID,136,VALID,0.71254,
2007-03-09, 01:06:00,VALID,918.096,VALID,0,VALID,90.7137,VALID,291.136,VALID,20.7589,VALID,147,VALID,0.963663,
2007-03-09, 01:07:00,VALID,918.104,VALID,0,VALID,90.0601,VALID,292.953,VALID,20.8011,VALID,136,VALID,0.976004,
2007-03-09, 01:08:00,VALID,918.1,VALID,0,VALID,88.7084,VALID,300.068,VALID,20.7916,VALID,135,VALID,1.44757,
2007-03-09, 01:09:00,VALID,918.098,VALID,0,VALID,89.7041,VALID,306.198,VALID,20.7983,VALID,130,VALID,0.965402,
2007-03-09, 01:10:00,VALID,918.103,VALID,0,VALID,90.2356,VALID,310.41,VALID,20.8919,VALID,97,VALID,0.793826,
2007-03-09, 01:11:00,VALID,918.102,VALID,0,VALID,88.9894,VALID,318.051,VALID,20.9514,VALID,130,VALID,1.01776,
2007-03-09, 01:12:00,VALID,918.106,VALID,0,VALID,89.3824,VALID,325.03,VALID,21.0198,VALID,122,VALID,0.842535,
2007-03-09, 01:13:00,VALID,918.109,VALID,0,VALID,90.0817,VALID,335.371,VALID,21.1362,VALID,95,VALID,0.551339,
2007-03-09, 01:14:00,VALID,918.133,VALID,0,VALID,91.1702,VALID,342.452,VALID,21.3466,VALID,35,VALID,0.802684,
2007-03-09, 01:15:00,VALID,918.128,VALID,0,VALID,90.6387,VALID,338.988,VALID,21.5414,VALID,47,VALID,0.975991,
2007-03-09, 01:16:00,VALID,918.145,VALID,0,VALID,89.2844,VALID,294.108,VALID,21.6623,VALID,55,VALID,1.1374,
2007-03-09, 01:17:00,VALID,918.169,VALID,0,VALID,88.4782,VALID,246.035,VALID,21.6948,VALID,58,VALID,1.43301,
2007-03-09, 01:18:00,VALID,918.175,VALID,0,VALID,88.1031,VALID,234.539,VALID,21.6596,VALID,66,VALID,1.27435,
2007-03-09, 01:19:00,VALID,918.194,VALID,0,VALID,86.9104,VALID,236.169,VALID,21.6044,VALID,94,VALID,1.06445,
2007-03-09, 01:20:00,VALID,918.199,VALID,0,VALID,87.26,VALID,244.847,VALID,21.546,VALID,91,VALID,1.14323,
2007-03-09, 01:21:00,VALID,918.212,VALID,0,VALID,87.2232,VALID,259.501,VALID,21.4778,VALID,87,VALID,1.00836,
2007-03-09, 01:22:00,VALID,918.203,VALID,0,VALID,88.6703,VALID,266.158,VALID,21.4973,VALID,71,VALID,1.10461,
2007-03-09, 01:23:00,VALID,918.217,VALID,0,VALID,89.1725,VALID,254.424,VALID,21.497,VALID,74,VALID,0.634766,
2007-03-09, 01:24:00,VALID,918.234,VALID,0,VALID,87.653,VALID,232.892,VALID,21.4548,VALID,73,VALID,1.27604,
2007-03-09, 01:25:00,VALID,918.237,VALID,0,VALID,88.4681,VALID,215.657,VALID,21.3896,VALID,66,VALID,0.770089,
2007-03-09, 01:26:00,VALID,918.254,VALID,0,VALID,88.3854,VALID,208.406,VALID,21.3902,VALID,114,VALID,0.378811,
2007-03-09, 01:27:00,VALID,918.267,VALID,0,VALID,89.1001,VALID,205.094,VALID,21.4483,VALID,52,VALID,0.591974,
2007-03-09, 01:28:00,VALID,918.275,VALID,0,VALID,89.0645,VALID,204.076,VALID,21.5162,VALID,69,VALID,0.906613,
2007-03-09, 01:29:00,VALID,918.292,VALID,0,VALID,88.0879,VALID,204.619,VALID,21.4875,VALID,71,VALID,0.924306,
2007-03-09, 01:30:00,VALID,918.315,VALID,0,VALID,88.6041,VALID,207.013,VALID,21.4159,VALID,53,VALID,1.18714,
2007-03-09, 01:31:00,VALID,918.319,VALID,0,VALID,88.6194,VALID,212.6,VALID,21.3672,VALID,74,VALID,1.11223,
2007-03-09, 01:32:00,VALID,918.333,VALID,0,VALID,89.0632,VALID,219.46,VALID,21.3277,VALID,64,VALID,0.873728,
2007-03-09, 01:33:00,VALID,918.339,VALID,0,VALID,89.582,VALID,223.196,VALID,21.3444,VALID,48,VALID,0.97433,
2007-03-09, 01:34:00,VALID,918.345,VALID,0,VALID,89.5032,VALID,225.471,VALID,21.3539,VALID,46,VALID,0.862216,
2007-03-09, 01:35:00,VALID,918.316,VALID,0,VALID,88.847,VALID,225.794,VALID,21.3737,VALID,47,VALID,1.32631,
2007-03-09, 01:36:00,VALID,918.313,VALID,0,VALID,88.4388,VALID,225.658,VALID,21.3542,VALID,43,VALID,1.34557,
2007-03-09, 01:37:00,VALID,918.313,VALID,0,VALID,88.7288,VALID,226.609,VALID,21.3707,VALID,41,VALID,1.28906,
2007-03-09, 01:38:00,VALID,918.316,VALID,0,VALID,88.0866,VALID,230.379,VALID,21.3801,VALID,47,VALID,1.12258,
2007-03-09, 01:39:00,VALID,918.304,VALID,0,VALID,88.3358,VALID,239.277,VALID,21.3739,VALID,48,VALID,1.09108,
2007-03-09, 01:40:00,VALID,918.315,VALID,0,VALID,88.819,VALID,257.565,VALID,21.4029,VALID,43,VALID,1.27511,
2007-03-09, 01:41:00,VALID,918.312,VALID,0,VALID,88.2366,VALID,269.214,VALID,21.4286,VALID,58,VALID,1.2702,
2007-03-09, 01:42:00,VALID,918.324,VALID,0,VALID,87.9569,VALID,274.139,VALID,21.4096,VALID,67,VALID,1.07741,
2007-03-09, 01:43:00,VALID,918.315,VALID,0,VALID,88.9805,VALID,299.644,VALID,21.4453,VALID,77,VALID,0.875762,
2007-03-09, 01:44:00,VALID,918.319,VALID,0,VALID,88.6906,VALID,311.072,VALID,21.5135,VALID,69,VALID,0.827744,
2007-03-09, 01:45:00,VALID,918.31,VALID,0,VALID,89.1369,VALID,312.906,VALID,21.6012,VALID,45,VALID,0.815589,
2007-03-09, 01:46:00,VALID,918.312,VALID,0,VALID,89.4574,VALID,313.228,VALID,21.76,VALID,47,VALID,0.872396,
2007-03-09, 01:47:00,VALID,918.311,VALID,0,VALID,88.6575,VALID,311.785,VALID,21.8963,VALID,45,VALID,0.822545,
2007-03-09, 01:48:00,VALID,918.295,VALID,0,VALID,87.981,VALID,315.011,VALID,22.0362,VALID,44,VALID,0.971726,
2007-03-09, 01:49:00,VALID,918.317,VALID,0,VALID,87.5169,VALID,323.196,VALID,22.1726,VALID,42,VALID,1.09938,
2007-03-09, 01:50:00,VALID,918.322,VALID,0,VALID,86.0838,VALID,329.564,VALID,22.2995,VALID,82,VALID,0.982013,
2007-03-09, 01:51:00,VALID,918.339,VALID,0,VALID,85.0284,VALID,329.445,VALID,22.3311,VALID,107,VALID,0.662538,
2007-03-09, 01:52:00,VALID,918.357,VALID,0,VALID,86.5111,VALID,338.326,VALID,22.4513,VALID,53,VALID,0.725038,
2007-03-09, 01:53:00,VALID,918.388,VALID,0,VALID,84.5236,VALID,357.48,VALID,22.5189,VALID,48,VALID,0.912348,
2007-03-09, 01:54:00,VALID,918.406,VALID,0,VALID,84.0696,VALID,400.765,VALID,22.6012,VALID,58,VALID,0.661519,
2007-03-09, 01:55:00,VALID,918.422,VALID,0,VALID,84.2908,VALID,476.329,VALID,22.7143,VALID,76,VALID,0.444169,
2007-03-09, 01:56:00,VALID,918.43,VALID,0,VALID,81.2581,VALID,532.23,VALID,22.848,VALID,181,VALID,1.09629,
2007-03-09, 01:57:00,VALID,918.44,VALID,0,VALID,80.2459,VALID,533.096,VALID,22.9886,VALID,183,VALID,0.643229,
2007-03-09, 01:58:00,VALID,918.436,VALID,0,VALID,80.5498,VALID,576.516,VALID,23.223,VALID,175,VALID,0.788881,
2007-03-09, 01:59:00,VALID,918.433,VALID,0,VALID,77.8756,VALID,574.411,VALID,23.3695,VALID,183,VALID,0.990945,
2007-03-09, 02:00:00,VALID,918.439,VALID,0,VALID,77.3899,VALID,564.748,VALID,23.4672,VALID,176,VALID,0.62407,
2007-03-09, 02:01:00,VALID,918.447,VALID,0,VALID,76.9041,VALID,588.284,VALID,23.5026,VALID,184,VALID,0.773785,
2007-03-09, 02:02:00,VALID,918.464,VALID,0,VALID,76.6332,VALID,554.764,VALID,23.5995,VALID,173,VALID,0.634859,
2007-03-09, 02:03:00,VALID,918.496,VALID,0,VALID,75.7279,VALID,509.17,VALID,23.6521,VALID,152,VALID,0.465039,
2007-03-09, 02:04:00,VALID,918.515,VALID,0,VALID,75.5829,VALID,468.28,VALID,23.7203,VALID,164,VALID,0.56715,
2007-03-09, 02:05:00,VALID,918.542,VALID,0,VALID,76.0941,VALID,465.699,VALID,23.8834,VALID,176,VALID,0.486049,
2007-03-09, 02:06:00,VALID,918.56,VALID,0,VALID,75.6795,VALID,491.188,VALID,23.9994,VALID,140,VALID,0.497456,
2007-03-09, 02:07:00,VALID,918.567,VALID,0,VALID,76.1246,VALID,546.341,VALID,24.1155,VALID,133,VALID,0.281445,
2007-03-09, 02:08:00,VALID,918.577,VALID,0,VALID,76.8392,VALID,626.219,VALID,24.2873,VALID,137,VALID,0.48601,
2007-03-09, 02:09:00,VALID,918.591,VALID,0,VALID,77.1597,VALID,686.926,VALID,24.5089,VALID,149,VALID,0.310501,
2007-03-09, 02:10:00,VALID,918.582,VALID,0,VALID,76.1106,VALID,693.956,VALID,24.7136,VALID,70,VALID,0.563802,
2007-03-09, 02:11:00,VALID,918.591,VALID,0,VALID,74.4613,VALID,678.011,VALID,24.9115,VALID,25,VALID,0.549361,
2007-03-09, 02:12:00,VALID,918.597,VALID,0,VALID,72.2666,VALID,677.892,VALID,24.9642,VALID,304,VALID,0.503634,
2007-03-09, 02:13:00,VALID,918.601,VALID,0,VALID,72.2093,VALID,681.186,VALID,24.944,VALID,232,VALID,0.227108,
2007-03-09, 02:14:00,VALID,918.582,VALID,0,VALID,72.4967,VALID,682.782,VALID,25.1595,VALID,231,VALID,0.319957,
2007-03-09, 02:15:00,VALID,918.589,VALID,0,VALID,72.8439,VALID,679.607,VALID,25.4029,VALID,96,VALID,0.385789,
2007-03-09, 02:16:00,VALID,918.582,VALID,0,VALID,73.8484,VALID,682.256,VALID,25.6766,VALID,43,VALID,0.41369,
2007-03-09, 02:17:00,VALID,918.575,VALID,0,VALID,73.7187,VALID,665.513,VALID,25.9822,VALID,2,VALID,0.358333,
2007-03-09, 02:18:00,VALID,918.586,VALID,0,VALID,70.0629,VALID,640.228,VALID,25.8326,VALID,257,VALID,0.874809,
2007-03-09, 02:19:00,VALID,918.577,VALID,0,VALID,72.339,VALID,590.491,VALID,25.4588,VALID,290,VALID,0.497523,
2007-03-09, 02:20:00,VALID,918.586,VALID,0,VALID,73.102,VALID,619.563,VALID,25.3057,VALID,294,VALID,0.212028,
2007-03-09, 02:21:00,VALID,918.582,VALID,0,VALID,74.6597,VALID,648.09,VALID,25.3187,VALID,294,VALID,0.248698,
2007-03-09, 02:22:00,VALID,918.602,VALID,0,VALID,73.837,VALID,643.064,VALID,25.3165,VALID,289,VALID,0.313565,
2007-03-09, 02:23:00,VALID,918.613,VALID,0,VALID,72.9507,VALID,650.875,VALID,25.2963,VALID,262,VALID,0.477628,
2007-03-09, 02:24:00,VALID,918.612,VALID,0,VALID,73.5979,VALID,643.573,VALID,25.3743,VALID,252,VALID,0.138494,
2007-03-09, 02:25:00,VALID,918.625,VALID,0,VALID,74.3278,VALID,625.081,VALID,25.7355,VALID,259,VALID,0.444949,
2007-03-09, 02:26:00,VALID,918.614,VALID,0,VALID,70.616,VALID,591.086,VALID,25.9565,VALID,166,VALID,0.707564,
2007-03-09, 02:27:00,VALID,918.624,VALID,0,VALID,68.6539,VALID,616.998,VALID,25.9568,VALID,169,VALID,1.18026,
2007-03-09, 02:28:00,VALID,918.622,VALID,0,VALID,71.4871,VALID,571.626,VALID,25.8967,VALID,157,VALID,0.72603,
2007-03-09, 02:29:00,VALID,918.631,VALID,0,VALID,69.5212,VALID,582.103,VALID,25.8778,VALID,127,VALID,0.868521,
2007-03-09, 02:30:00,VALID,918.629,VALID,0,VALID,71.3612,VALID,596.689,VALID,25.7738,VALID,110,VALID,0.604353,
2007-03-09, 02:31:00,VALID,918.632,VALID,0,VALID,71.0636,VALID,607.404,VALID,25.6867,VALID,189,VALID,1.00309,
2007-03-09, 02:32:00,VALID,918.635,VALID,0,VALID,71.3701,VALID,645.017,VALID,25.675,VALID,180,VALID,0.986793,
2007-03-09, 02:33:00,VALID,918.636,VALID,0,VALID,70.5537,VALID,669.554,VALID,25.7663,VALID,193,VALID,0.857067,
2007-03-09, 02:34:00,VALID,918.631,VALID,0,VALID,69.8925,VALID,662.592,VALID,25.9451,VALID,197,VALID,0.292492,
2007-03-09, 02:35:00,VALID,918.645,VALID,0,VALID,70.1417,VALID,610.427,VALID,26.1594,VALID,201,VALID,0.133929,
2007-03-09, 02:36:00,VALID,918.672,VALID,0,VALID,70.4075,VALID,537.545,VALID,26.4325,VALID,202,VALID,0.305208,
2007-03-09, 02:37:00,VALID,918.676,VALID,0,VALID,70.6313,VALID,550.841,VALID,26.6543,VALID,344,VALID,0.506284,
2007-03-09, 02:38:00,VALID,918.694,VALID,0,VALID,69.4144,VALID,541.162,VALID,26.7418,VALID,45,VALID,0.747713,
2007-03-09, 02:39:00,VALID,918.699,VALID,0,VALID,68.3729,VALID,527.306,VALID,26.6637,VALID,151,VALID,0.603091,
2007-03-09, 02:40:00,VALID,918.716,VALID,0,VALID,68.2279,VALID,468.28,VALID,26.6471,VALID,143,VALID,0.339935,
2007-03-09, 02:41:00,VALID,918.711,VALID,0,VALID,68.2775,VALID,453.643,VALID,26.6247,VALID,158,VALID,1.08086,
2007-03-09, 02:42:00,VALID,918.716,VALID,0,VALID,69.4589,VALID,493.174,VALID,26.3733,VALID,156,VALID,1.3101,
2007-03-09, 02:43:00,VALID,918.727,VALID,0,VALID,70.3579,VALID,485.991,VALID,26.0609,VALID,167,VALID,1.2207,
2007-03-09, 02:44:00,VALID,918.727,VALID,0,VALID,71.4489,VALID,520.191,VALID,25.8528,VALID,166,VALID,0.861178,
2007-03-09, 02:45:00,VALID,918.722,VALID,0,VALID,71.8482,VALID,589.354,VALID,25.7488,VALID,145,VALID,1.37682,
2007-03-09, 02:46:00,VALID,918.702,VALID,0,VALID,71.4426,VALID,513.721,VALID,25.5693,VALID,172,VALID,1.2803,
2007-03-09, 02:47:00,VALID,918.698,VALID,0,VALID,70.9937,VALID,556.717,VALID,25.4985,VALID,166,VALID,1.09301,
2007-03-09, 02:48:00,VALID,918.682,VALID,0,VALID,70.7101,VALID,598.184,VALID,25.4692,VALID,168,VALID,0.911337,
2007-03-09, 02:49:00,VALID,918.655,VALID,0,VALID,71.2556,VALID,575.022,VALID,25.4822,VALID,154,VALID,1.11198,
2007-03-09, 02:50:00,VALID,918.652,VALID,0,VALID,72.1814,VALID,615.368,VALID,25.4565,VALID,153,VALID,0.370561,
2007-03-09, 02:51:00,VALID,918.634,VALID,0,VALID,71.3892,VALID,619.664,VALID,25.544,VALID,159,VALID,0.729759,
2007-03-09, 02:52:00,VALID,918.631,VALID,0,VALID,70.485,VALID,640.075,VALID,25.6415,VALID,170,VALID,0.817765,
2007-03-09, 02:53:00,VALID,918.607,VALID,0,VALID,68.8561,VALID,550.162,VALID,25.7585,VALID,181,VALID,0.503811,
2007-03-09, 02:54:00,VALID,918.595,VALID,0,VALID,68.3322,VALID,605.163,VALID,25.8635,VALID,164,VALID,0.377858,
2007-03-09, 02:55:00,VALID,918.585,VALID,0,VALID,71.5367,VALID,630.328,VALID,25.9897,VALID,140,VALID,0.827539,
2007-03-09, 02:56:00,VALID,918.572,VALID,0,VALID,71.0344,VALID,550.06,VALID,26.1002,VALID,48,VALID,1.38517,
2007-03-09, 02:57:00,VALID,918.575,VALID,0,VALID,70.3592,VALID,682.544,VALID,26.0154,VALID,49,VALID,1.70881,
2007-03-09, 02:58:00,VALID,918.575,VALID,0,VALID,68.8866,VALID,636.73,VALID,25.9416,VALID,26,VALID,0.726381,
2007-03-09, 02:59:00,VALID,918.577,VALID,0,VALID,69.0748,VALID,634.777,VALID,25.9412,VALID,30,VALID,1.38707,
2007-03-09, 03:00:00,VALID,918.58,VALID,0,VALID,70.6821,VALID,606.368,VALID,25.9185,VALID,39,VALID,1.45465,
2007-03-09, 03:01:00,VALID,918.582,VALID,0,VALID,69.3203,VALID,659.145,VALID,25.9113,VALID,59,VALID,1.68695,
2007-03-09, 03:02:00,VALID,918.582,VALID,0,VALID,70.0769,VALID,648.6,VALID,25.7465,VALID,65,VALID,1.97422,
2007-03-09, 03:03:00,VALID,918.596,VALID,0,VALID,71.0242,VALID,592.512,VALID,25.6708,VALID,34,VALID,1.38411,
2007-03-09, 03:04:00,VALID,918.605,VALID,0,VALID,70.2066,VALID,657.973,VALID,25.7426,VALID,54,VALID,0.818182,
2007-03-09, 03:05:00,VALID,918.621,VALID,0,VALID,69.3266,VALID,674.716,VALID,25.9084,VALID,106,VALID,0.409489,
2007-03-09, 03:06:00,VALID,918.599,VALID,0,VALID,69.4004,VALID,697.912,VALID,26.0619,VALID,58,VALID,0.725074,
2007-03-09, 03:07:00,VALID,918.603,VALID,0,VALID,70.0769,VALID,671.388,VALID,26.1457,VALID,21,VALID,1.24628,
2007-03-09, 03:08:00,VALID,918.601,VALID,0,VALID,70.3426,VALID,688.759,VALID,26.2208,VALID,64,VALID,1.26563,
2007-03-09, 03:09:00,VALID,918.61,VALID,0,VALID,69.1918,VALID,692.614,VALID,26.1854,VALID,53,VALID,1.35885,
2007-03-09, 03:10:00,VALID,918.623,VALID,0,VALID,69.8009,VALID,681.441,VALID,26.1529,VALID,24,VALID,1.13336,
2007-03-09, 03:11:00,VALID,918.615,VALID,0,VALID,70.1048,VALID,675.752,VALID,26.2638,VALID,40,VALID,1.14116,
2007-03-09, 03:12:00,VALID,918.602,VALID,0,VALID,69.7933,VALID,671.405,VALID,26.3978,VALID,48,VALID,0.862995,
2007-03-09, 03:13:00,VALID,918.585,VALID,0,VALID,66.7745,VALID,664.154,VALID,26.4732,VALID,101,VALID,0.732955,
2007-03-09, 03:14:00,VALID,918.581,VALID,0,VALID,67.8325,VALID,689.592,VALID,26.535,VALID,57,VALID,0.816584,
2007-03-09, 03:15:00,VALID,918.561,VALID,0,VALID,67.4548,VALID,697.861,VALID,26.6264,VALID,7,VALID,0.974085,
2007-03-09, 03:16:00,VALID,918.538,VALID,0,VALID,68.9502,VALID,703.329,VALID,26.7681,VALID,38,VALID,0.809304,
2007-03-09, 03:17:00,VALID,918.539,VALID,0,VALID,68.5954,VALID,704.416,VALID,26.9934,VALID,30,VALID,0.930398,
2007-03-09, 03:18:00,VALID,918.539,VALID,0,VALID,65.7814,VALID,753.864,VALID,27.1491,VALID,38,VALID,1.11973,
2007-03-09, 03:19:00,VALID,918.534,VALID,0,VALID,64.5034,VALID,771.371,VALID,27.2828,VALID,32,VALID,1.08012,
2007-03-09, 03:20:00,VALID,918.534,VALID,0,VALID,64.361,VALID,779.539,VALID,27.3966,VALID,45,VALID,0.963844,
2007-03-09, 03:21:00,VALID,918.54,VALID,0,VALID,65.2727,VALID,781.067,VALID,27.4613,VALID,37,VALID,0.798328,
2007-03-09, 03:22:00,VALID,918.548,VALID,0,VALID,65.1023,VALID,815.946,VALID,27.6178,VALID,24,VALID,0.513338,
2007-03-09, 03:23:00,VALID,918.558,VALID,0,VALID,63.2433,VALID,717.338,VALID,27.6894,VALID,231,VALID,0.795785,
2007-03-09, 03:24:00,VALID,918.558,VALID,0,VALID,62.1815,VALID,811.548,VALID,27.7967,VALID,187,VALID,1.17715,
2007-03-09, 03:25:00,VALID,918.554,VALID,0,VALID,61.0853,VALID,808.763,VALID,27.9402,VALID,182,VALID,0.554506,
2007-03-09, 03:26:00,VALID,918.542,VALID,0,VALID,63.3272,VALID,800.459,VALID,28.1158,VALID,180,VALID,0.755335,
2007-03-09, 03:27:00,VALID,918.542,VALID,0,VALID,59.7947,VALID,779.675,VALID,28.1585,VALID,191,VALID,1.27525,
2007-03-09, 03:28:00,VALID,918.518,VALID,0,VALID,59.1194,VALID,769.52,VALID,28.0576,VALID,201,VALID,0.354167,
2007-03-09, 03:29:00,VALID,918.5,VALID,0,VALID,60.3033,VALID,761.607,VALID,28.0511,VALID,198,VALID,0.0419034,
2007-03-09, 03:30:00,VALID,918.503,VALID,0,VALID,59.5276,VALID,604.144,VALID,28.217,VALID,197,VALID,0.813021,
2007-03-09, 03:31:00,VALID,918.492,VALID,0,VALID,59.6993,VALID,768.332,VALID,28.1126,VALID,247,VALID,0.775484,
2007-03-09, 03:32:00,VALID,918.482,VALID,0,VALID,60.0083,VALID,765.903,VALID,27.7258,VALID,240,VALID,1.01448,
2007-03-09, 03:33:00,VALID,918.465,VALID,0,VALID,63.1326,VALID,771.66,VALID,27.4602,VALID,327,VALID,0.901786,
2007-03-09, 03:34:00,VALID,918.46,VALID,0,VALID,62.0963,VALID,764.749,VALID,27.3782,VALID,108,VALID,1.72027,
2007-03-09, 03:35:00,VALID,918.466,VALID,0,VALID,62.2425,VALID,756.038,VALID,27.1402,VALID,120,VALID,1.58929,
2007-03-09, 03:36:00,VALID,918.458,VALID,0,VALID,63.7379,VALID,722.263,VALID,26.8198,VALID,124,VALID,1.37827,